Location: Cerroniocc
(13.7547°S, 72.0222°W)
Time: 19:56:20
(UTC+00:00)

Ariane H10 - Pass Details

Date: 05 July 2020
Orbit: 435 x 35004 km, 4.0° (Epoch: 11 August)

Event Time Altitude Azimuth Distance (km) Brightness Sun altitude
Rises 23:51:05 0° 291° (WNW) 3,149 7.4 -18.5°
Reaches altitude 10° 23:54:57 10° 330° (NNW) 1,577 4.8 -19.3°
Maximum altitude 23:56:05 12° 355° (N) 1,423 4.2 -19.6°
Drops below altitude 10° 23:57:11 10° 19° (NNE) 1,534 4.1 -19.9°
Enters shadow 23:57:32 - 26° (NNE) 1,616 4.1 -19.9°
